Tracking 23940 objects as of 2-Dec-2021
HD Live streaming from Space Station
objects crossing your sky now

INS-1B

Track INS-1B now!
10-day predictions


NORAD ID: 41954
Int'l Code: 2017-008G
Perigee: 485.6 km
Apogee: 496.2 km
Inclination: 97.3 °
Period: 94.3 minutes
Semi major axis: 6861 km
RCS: Unknown
Launch date: February 15, 2017
Source: India (IND)
Launch site: SRIHARIKOTA (SRI)
aabbcc
Your satellite tracking list
Your tracking list is empty




NASA's NSSDC Master Catalog

Two Line Element Set (TLE):
1 41954U 17008G   21335.66918593  .00004896  00000-0  18545-3 0  9993
2 41954  97.2888  35.0234 0007680 209.6967 150.3837 15.27340480266526
Source of the keplerian elements: AFSPC